Location: *
(47.8333°N, 4.3667°E)
Time: 09:56:54
(UTC+00:00)

Daily predictions for brighter satellites

Satellite Brightness Start Highest point End
(mag) Time Altitude Azimuth Time Altitude Azimuth Time Altitude Azimuth
NOSS 3-3 (A) 4.0 18:11:25 10° SSW 18:17:17 70° SE 18:23:54 10° NE
NOSS 3-3 (C) 4.0 18:11:31 10° SSW 18:17:23 69° SE 18:24:00 10° NE
Cosmos 2151 Rocket 3.5 18:15:33 10° S 18:19:54 66° E 18:24:17 10° NNE
COSMOS 2455 3.1 18:15:17 10° NW 18:21:20 78° WSW 18:27:20 10° SSE
HJ-1C 3.8 18:20:59 10° SE 18:24:11 43° ENE 18:27:26 10° N
COBE Rocket 4.4 18:19:32 10° N 18:24:31 70° WNW 18:29:36 10° SSW
Cosmos 1378 3.2 18:20:57 10° N 18:24:44 89° WSW 18:28:29 10° S
Cosmos 2074 Rocket 4.0 18:22:22 10° N 18:28:40 81° E 18:34:53 10° S
Cosmos 1707 3.6 18:28:22 10° N 18:31:52 30° ENE 18:35:21 10° SE
SL-16 R/B 3.8 18:30:14 10° N 18:34:10 19° NE 18:38:07 10° E
USA 234 4.1 18:28:56 10° NE 18:35:10 48° NNW 18:41:24 10° W
Cosmos 2333 4.4 18:30:18 10° NNW 18:35:58 76° WSW 18:41:39 10° SSE
SJ-6B 3.8 18:33:07 10° SE 18:36:45 31° ENE 18:40:22 10° N
SPOT 3 Rocket 4.1 18:32:47 10° SE 18:37:28 37° ENE 18:42:12 10° N
ADEOS Rocket 4.3 18:31:27 10° NE 18:37:32 27° E 18:43:52 10° SSE
Aureole 1 Rocket 3.3 18:32:23 10° NNW 18:37:55 90° SW 18:42:02 10° SSE
MOS 1 4.3 18:36:09 10° SSE 18:41:47 65° ENE 18:47:26 10° N
Cosmos 2219 Rocket 2.2 18:36:29 10° NNW 18:42:06 85° ENE 18:47:43 10° SSE
COSMOS 2428 2.8 18:40:10 10° NNW 18:45:53 89° WSW 18:51:34 10° SSE
Cosmos 1939 Rocket 3.0 18:43:02 10° S 18:46:53 72° W 18:50:46 10° NNW
FREGAT/IRIS 2.4 18:46:03 10° SSE 18:48:49 58° ENE 18:51:36 10° N
NOAA 11 4.4 18:44:39 10° S 18:50:09 76° WSW 18:55:40 10° NNW
CZ-4C R/B 4.4 18:46:28 10° WNW 18:51:02 23° NNW 18:56:13 10° NE
ATLAS 2AS CENTAUR R/B 3.0 18:43:21 10° NW 18:51:08 86° SW 18:58:15 10° SE
Cosmos 2154 Rocket 3.9 18:45:14 10° N 18:51:28 74° E 18:57:39 10° SSE
Cosmos 2360 Rocket 4.2 18:48:55 10° NW 18:53:44 29° WSW 18:58:31 10° SSW
CZ-2D R/B 4.2 18:50:48 10° S 18:54:29 49° W 18:58:12 10° NNW
Okean 1 Rocket 2.9 18:57:52 10° S 19:02:12 80° E 19:06:35 10° NNE
Resurs 1-3 4.5 19:00:34 19° ESE 19:02:57 31° ENE 19:06:48 10° N
ASTEX 1 3.3 18:59:09 10° NNE 19:04:01 63° E 19:08:51 10° S
SL-8 Rocket 4.4 18:59:49 10° N 19:05:42 42° ENE 19:10:33 15° SE
SL-8 R/B 3.6 19:02:04 10° WSW 19:06:51 81° SSE 19:10:24 18° E
Resurs 01 Rocket 2.7 19:05:43 21° ESE 19:07:31 27° ENE 19:11:16 10° N
Meteor 1-12 Rocket 4.4 19:01:49 10° SSW 19:07:33 77° WNW 19:13:15 10° N
H-2A R/B 2.2 19:04:23 14° SE 19:08:22 48° ENE 19:13:14 10° N
Cosmos 2219 3.5 19:03:39 10° S 19:09:06 46° ESE 19:14:35 10° NE
Cosmos 2227 Rocket 3.0 19:04:32 10° SSE 19:09:13 28° ESE 19:13:57 10° NE
Meteor 1-15 Rocket 4.4 19:05:01 10° SSE 19:10:32 50° E 19:16:12 10° NNE
GP-B 3.9 19:08:03 10° N 19:12:24 56° W 19:16:44 10° SSW
BREEZE M DEB (TANK) 2.0 19:13:26 10° W 19:15:38 65° N 19:17:51 22° ENE
SAR-Lupe-2 3.7 19:13:00 10° N 19:16:36 77° WNW 19:20:10 10° SSW
ARGOS 3.3 19:12:30 15° SE 19:16:50 56° ENE 19:22:07 10° N
ERBS 3.9 19:15:42 10° NW 19:18:36 25° NNE 19:19:52 20° NE
Cosmos 1544 3.8 19:15:46 10° SSW 19:19:18 53° WNW 19:22:51 10° N
USA 186 2.0 19:16:24 12° S 19:19:31 79° W 19:22:58 10° NNW
Cosmos 2297 Rocket 2.7 19:14:58 10° S 19:20:02 35° ESE 19:25:07 10° NE
Cosmos 1437 Rocket 3.7 19:19:45 10° N 19:23:05 28° ENE 19:23:15 28° ENE
BREEZE-M DEB (TANK) 3.7 19:21:01 10° WNW 19:25:11 67° N 19:31:48 19° E
Cosmos 1190 Rocket 4.0 19:21:25 10° NNW 19:26:45 72° ENE 19:30:01 24° SSE
ISS -1.3 19:24:33 10° S 19:24:55 12° S 19:24:55 12° S
Cosmos 405 Rocket 2.7 19:26:19 27° SSE 19:28:00 49° E 19:31:36 10° NNE
Cosmos 1023 Rocket 4.5 19:27:10 10° NNW 19:32:18 62° ENE 19:34:41 31° SE
RESURS DK-1 4.3 19:30:55 10° N 19:33:33 16° NE 19:34:00 16° NE
Cosmos 389 Rocket 2.4 19:30:40 10° NNW 19:34:06 77° W 19:35:42 29° S
Cosmos 1892 Rocket 3.5 19:31:29 10° N 19:35:59 83° E 19:38:37 24° SSE
Meteor 1-24 Rocket 4.1 19:31:43 10° N 19:37:15 46° ENE 19:39:26 32° ESE
NOSS 0 Rocket 4.3 19:31:35 10° NW 19:37:43 65° WSW 19:42:55 15° SSE
Cosmos 2333 Rocket 3.6 19:33:52 10° NW 19:39:02 37° WSW 19:44:12 10° S
MetOp-A 4.2 19:37:09 30° SE 19:39:41 58° ENE 19:44:57 10° N
GENESIS II 4.4 19:37:18 10° NNW 19:41:23 59° NE 19:42:10 49° E
Okean 1-7 Rocket 3.6 19:37:25 10° N 19:41:53 84° W 19:44:38 23° S
SL-24 R/B 4.3 19:46:07 43° SE 19:47:28 64° ENE 19:52:21 10° N
In-Cosmos 22 4.2 19:42:56 10° NNW 19:48:17 76° W 19:52:32 17° S
Cosmos 2237 Rocket 2.3 19:43:31 10° NNW 19:49:13 74° WSW 19:52:31 26° SSE
Cosmos 1805 4.3 19:53:33 31° NE 19:53:33 31° NE 19:55:54 10° NNE
Meteor 1-4 Rocket 3.0 19:51:12 10° NNW 19:54:43 58° W 19:55:34 43° SSW
Meteor 2-5 Rocket 3.7 19:49:42 10° N 19:55:33 83° E 19:58:36 30° SSE
Cosmos 2056 Rocket 3.4 19:50:19 10° SSW 19:55:45 81° ESE 20:01:12 10° NNE
CZ-2C R/B 3.0 19:55:02 38° SSE 19:57:06 77° ENE 20:02:38 10° N
Cosmos 614 Rocket 4.4 19:52:09 10° NNW 19:57:19 61° WSW 20:00:10 26° S
Cosmos 1674 2.8 19:54:00 10° N 19:57:14 56° NE 19:57:14 56° NE
Cosmos 1980 4.1 19:52:45 10° NW 19:58:18 59° WSW 20:01:33 25° S
NOSS 3-4 (A) 4.4 19:51:32 10° NW 19:58:21 53° WSW 20:03:35 20° S
NOSS 3-4 (C) 4.4 19:51:38 10° NW 19:58:27 54° WSW 20:03:39 20° S
Cosmos 407 Rocket 4.0 19:53:51 10° NNW 19:58:53 56° WSW 20:01:46 25° S
Terra 3.8 20:06:35 15° NE 20:06:35 15° NE 20:08:33 10° NNE
DMSP B5D2-2 4.1 20:00:39 10° NNE 20:05:51 53° E 20:06:03 53° ESE
Cosmos 1624 Rocket 4.0 20:02:42 10° SSW 20:07:54 79° WNW 20:13:08 10° NNE
Cosmos 1741 Rocket 4.5 20:05:44 10° NNW 20:10:51 43° ENE 20:11:02 43° ENE
Meteor 1-22 Rocket 4.3 20:10:15 38° SSE 20:12:36 68° E 20:18:41 10° NNE
KORONAS-FOTON 4.3 20:13:20 10° N 20:16:22 55° NNW 20:16:22 55° NNW
USA 234 4.2 20:13:12 19° ENE 20:17:26 40° N 20:23:27 10° WNW
SL-08 R/B 4.5 20:11:14 10° N 20:17:46 82° E 20:19:54 46° SSE
Cosmos 1544 Rocket 3.7 20:16:56 51° SSW 20:18:00 75° W 20:22:30 10° N
Cosmos 1455 Rocket 3.5 20:16:22 26° SSW 20:18:45 60° WNW 20:23:11 10° N
Cosmos 2181 Rocket 4.3 20:12:55 10° SSW 20:19:06 66° WNW 20:25:27 10° N
SL-16 R/B 2.1 20:13:32 10° NNW 20:19:15 79° ENE 20:20:07 64° SE
ERS-1 Rocket 3.9 20:20:34 34° NE 20:20:34 34° NE 20:24:28 10° N
Cosmos 1954 Rocket 4.0 20:15:03 10° NNW 20:20:16 73° WSW 20:21:17 56° S
Spot 2 Rocket 3.3 20:23:09 77° SE 20:23:28 82° ENE 20:28:33 10° NNW
ADEOS Rocket 3.7 20:16:17 10° N 20:23:30 73° WNW 20:31:11 10° SSW
USA 245 4.4 20:23:59 57° ESE 20:24:44 62° ENE 20:30:29 10° N
Cosmos 1140 Rocket 4.1 20:21:01 10° NNW 20:26:01 49° WSW 20:27:31 38° SSW
Nadezhda 3 Rocket 4.1 20:32:10 53° ENE 20:32:10 53° ENE 20:37:41 10° NNE
Cosmos 1766 4.3 20:35:10 43° NNW 20:35:10 43° NNW 20:38:08 10° N
Cosmos 2082 3.5 20:34:48 78° SE 20:34:58 80° ESE 20:40:44 10° NNE
Cosmos 1626 Rocket 4.0 20:33:00 10° NNW 20:36:45 58° NW 20:36:45 58° NW
CZ-2C R/B 3.1 20:32:30 10° NNE 20:36:53 51° NE 20:36:53 51° NE
CZ-4C R/B 4.5 20:37:01 10° NW 20:41:55 22° NNE 20:46:28 13° NE
Resurs 01 Rocket 2.8 20:43:18 34° WSW 20:43:52 36° W 20:47:59 10° NNW
H-2A R/B 4.0 20:45:01 14° SW 20:48:05 24° W 20:52:06 10° NW
SL-8 R/B 4.3 20:44:40 10° W 20:48:22 53° WNW 20:48:22 53° WNW
Cosmos 1821 Rocket 3.8 20:43:19 10° N 20:49:26 77° ENE 20:49:26 77° ENE
Cosmos 1452 Rocket 4.3 20:52:11 42° NNE 20:52:11 42° NNE 20:55:36 10° NNE
Cosmos 2227 Rocket 2.9 20:47:26 10° SW 20:52:58 53° WNW 20:58:32 10° NNE
MetOp-B 4.4 20:54:15 62° WSW 20:54:23 62° WSW 20:59:43 10° NNW
Cosmos 2297 Rocket 3.2 20:58:36 10° SW 21:03:59 43° NW 21:09:23 10° NNE
SPOT 5 4.0 21:09:37 38° N 21:09:37 38° N 21:12:44 10° N
RESURS DK-1 4.4 21:07:58 10° NNW 21:09:54 26° NW 21:09:54 26° NW
Cosmos 1943 4.0 21:17:15 10° NNW 21:21:25 45° N 21:21:25 45° N
Terra 3.7 21:45:28 27° NNW 21:45:28 27° NNW 21:47:39 10° NNW
USA 234 3.7 22:00:33 57° N 22:00:33 57° N 22:06:15 10° NW
SL-16 R/B 4.3 21:58:59 10° WNW 22:02:01 18° W 22:02:01 18° W
CZ-4C R/B 3.7 22:25:46 10° NW 22:31:37 42° NNE 22:31:37 42° NNE
Cosmos 2263 Rocket 4.2 23:06:41 23° N 23:06:41 23° N 23:09:01 10° NNE
